DECAYED
Showing default

FLOCK 4Q 12, 58275 (Decayed)

Orbit data source: Space-Track

FLOCK 4Q 12, 58275 was a payload satellite owned by Planet (US) in LEO that was launched on Sat, 11 Nov 2023 UTC via an FALCON 9 launch vehicle from the Air Force Western Test Range (AFWTR). Payload-class satellites include a variety of spacecraft equipped with specific instruments for various scientific and technological missions. These include communications satellites like Starlink; space stations such as the ISS; scientific satellites like the Hubble; Earth observation satellites from companies like Planet Labs, Umbra, and HawkEye 360; GPS; miniature CubeSats for education and research; and military/defense satellites.

Not visible in the next 10 days
Identifier
58275, 2023-174V
Orbit
Decayed
Country
Flag of USUS
Related business
Manufacturer
Planet
Mission
Decayed Commercial Imaging
Bus & Motor
CUBESAT 3U, Unknown motor
Mass
5.7 kg wet, 5.7 kg dry
Launch date (UTC)
2023-11-11 (3 years ago)
Launch vehicle
FALCON 9
Launch site
Air Force Western Test Range (AFWTR)
Object type
Payload
Rocket body
Debris
Shape & HBR
Box + 2 Pan, 1.0 m
Radar Cross Section
0.072 m², Medium (>0.1 m² and < 1m²)

Expand to show TLE details & history
Last TLE update: 1 month ago

TLE from 1 month ago
0 FLOCK 4Q 12
1 58275U 23174V   26209.27112771  .06517509  24809-5  13345-2 0  9990
2 58275  97.3653 306.2222 0018353 275.6537  84.2664 16.30703076152454
Epoch: 2026-07-28T06:30Z
TLE epoch observation values (Epoch: 2026-07-28T06:30:25.434Z)
Latitude
-0.00007°
Longitude
-97.32651°
Altitude
192.708 km
Speed
7.791 km/s
True Right ascension
20h 24m 53s
True Declination
0° 00' 00"
Sunlit
Object was in full shadow at epoch
Visualization orbit readout
Latitude
Unknown
Longitude
Unknown
Altitude
Unknown
Speed
Unknown
Apparent Right ascension
Unknown
Apparent Declination
Unknown
Sunlit
N/A
Visualization observer readout
Local Sidereal Time
06:30:00
Azimuth
Unknown
Elevation
Unknown
Doppler factor
Unknown
Orbital elements
Apogee altitude
199.519 km
Perigee altitude
175.419 km
Semi-major axis
6,565.606 km
Eccentricity
0.00184
Inclination
97.3653°
RAAN
306.2222°
Arg. of periapsis
275.6537°
True anomaly
84.47571°
Mean anomaly
84.2664°
Eccentric anomaly
84.37105°
Mean motion
4.07973 °/min
Orbital period
88.24 mins
BSTAR
0.0013345
Loading maneuver chart data...
Computing Atmospheric mass density...
Loading historical data...
Loading historical data...
Loading historical data...
Loading historical data...
Loading historical data...
Loading historical data...
Loading historical data...

Documentation

Showing up to 5 results
|